Location: Bergnerzell
(49.1816°N, 10.2565°E)
Time: 19:28:08
(UTC+00:00)

COSMOS 2406 - Pass Details

Date: 23 May 2024
Orbit: 844 x 861 km, 71.0° (Epoch: 23 June)

Event Time Altitude Azimuth Distance (km) Brightness Sun altitude
Exits shadow 01:19:31 18° 240° (WSW) 2,004 4.6 -14.9°
Maximum altitude 01:23:36 46° 307° (NW) 1,145 3.9 -14.6°
Drops below altitude 10° 01:29:08 10° 20° (NNE) 2,509 7.0 -14.1°
Sets 01:31:43 0° 27° (NNE) 3,447 8.3 -13.9°
